N77AD KWHP-KCMA

Flight info

Callsign N77AD
Flight time 0h 35m
Altitude 5000
Route VNY V326 GINNA
Aircraft C152/L-O/1200

Departure

Time 2026-05-05 19:11
Airport Whiteman Airport (KWHP)

Arrival

Time 2026-05-05 19:47
Airport Camarillo International Airport (KCMA)
Time Latitude Longitude Altitude Speed Heading
2026-05-05 18:45 34.26158 -118.41305 1004 ft 0 kts 41°
2026-05-05 18:55 34.26159 -118.41305 1004 ft 2 kts 44°
2026-05-05 18:56 34.26147 -118.41310 1003 ft 6 kts 257°
2026-05-05 18:56 34.26104 -118.41378 999 ft 14 kts 228°
2026-05-05 18:56 34.26088 -118.41448 998 ft 10 kts 317°
2026-05-05 18:56 34.26147 -118.41511 999 ft 13 kts 317°
2026-05-05 18:57 34.26191 -118.41558 1001 ft 12 kts 319°
2026-05-05 18:57 34.26245 -118.41615 1004 ft 8 kts 319°
2026-05-05 18:57 34.26290 -118.41662 1007 ft 9 kts 322°
2026-05-05 18:57 34.26339 -118.41684 1009 ft 7 kts 340°
2026-05-05 18:58 34.26361 -118.41707 1010 ft 0 kts 241°
2026-05-05 19:02 34.26356 -118.41718 1010 ft 11 kts 249°
2026-05-05 19:02 34.26365 -118.41727 1010 ft 6 kts 90°
2026-05-05 19:02 34.26365 -118.41722 1010 ft 0 kts 85°
2026-05-05 19:06 34.26360 -118.41714 1010 ft 3 kts 195°
2026-05-05 19:06 34.26364 -118.41738 1010 ft 3 kts 301°
2026-05-05 19:06 34.26366 -118.41741 1010 ft 0 kts 301°
2026-05-05 19:09 34.26364 -118.41772 1011 ft 10 kts 224°
2026-05-05 19:09 34.26263 -118.41693 1007 ft 36 kts 134°
2026-05-05 19:10 34.25980 -118.41402 1001 ft 67 kts 141°
2026-05-05 19:10 34.25615 -118.40996 1090 ft 67 kts 142°
2026-05-05 19:10 34.25294 -118.40663 1252 ft 60 kts 127°
2026-05-05 19:10 34.25022 -118.40311 1366 ft 52 kts 145°
2026-05-05 19:11 34.24657 -118.40163 1399 ft 60 kts 183°
2026-05-05 19:11 34.24316 -118.40399 1500 ft 57 kts 241°
2026-05-05 19:11 34.24235 -118.40868 1580 ft 57 kts 245°
2026-05-05 19:11 34.24022 -118.41263 1647 ft 60 kts 212°
2026-05-05 19:12 34.23635 -118.41457 1724 ft 60 kts 192°
2026-05-05 19:12 34.23275 -118.41662 1826 ft 55 kts 216°
2026-05-05 19:12 34.22971 -118.41917 1907 ft 53 kts 208°
2026-05-05 19:12 34.22723 -118.42270 1960 ft 57 kts 245°
2026-05-05 19:13 34.22635 -118.42744 2048 ft 58 kts 263°
2026-05-05 19:13 34.22618 -118.43246 2111 ft 61 kts 267°
2026-05-05 19:13 34.22640 -118.43754 2203 ft 59 kts 277°
2026-05-05 19:13 34.22738 -118.44226 2295 ft 59 kts 286°
2026-05-05 19:14 34.22879 -118.44702 2355 ft 60 kts 290°
2026-05-05 19:14 34.22961 -118.45174 2454 ft 58 kts 265°
2026-05-05 19:14 34.22905 -118.45670 2524 ft 61 kts 258°
2026-05-05 19:14 34.22817 -118.46173 2606 ft 63 kts 257°
2026-05-05 19:15 34.22751 -118.46685 2714 ft 58 kts 261°
2026-05-05 19:15 34.22630 -118.47151 2777 ft 59 kts 250°
2026-05-05 19:15 34.22465 -118.47596 2837 ft 59 kts 248°
2026-05-05 19:15 34.22277 -118.48038 2871 ft 64 kts 236°
2026-05-05 19:16 34.21972 -118.48388 2988 ft 56 kts 235°
2026-05-05 19:16 34.21775 -118.48789 3055 ft 57 kts 250°
2026-05-05 19:16 34.21617 -118.49202 3158 ft 50 kts 262°
2026-05-05 19:16 34.21700 -118.49586 3212 ft 49 kts 303°
2026-05-05 19:17 34.21969 -118.49821 3268 ft 49 kts 336°
2026-05-05 19:17 34.22335 -118.49855 3317 ft 59 kts
2026-05-05 19:17 34.22708 -118.49718 3397 ft 54 kts
2026-05-05 19:17 34.23079 -118.49635 3422 ft 58 kts
2026-05-05 19:18 34.23476 -118.49542 3458 ft 57 kts 341°
2026-05-05 19:18 34.23847 -118.49714 3513 ft 53 kts 324°
2026-05-05 19:18 34.24172 -118.49947 3554 ft 55 kts 321°
2026-05-05 19:18 34.24481 -118.50225 3597 ft 55 kts 314°
2026-05-05 19:19 34.24805 -118.50465 3683 ft 53 kts 327°
2026-05-05 19:19 34.25166 -118.50626 3729 ft 57 kts 338°
2026-05-05 19:19 34.25559 -118.50750 3794 ft 59 kts 341°
2026-05-05 19:19 34.25970 -118.50839 3840 ft 62 kts 344°
2026-05-05 19:20 34.26407 -118.50967 3895 ft 65 kts 336°
2026-05-05 19:20 34.26788 -118.51185 4027 ft 57 kts 324°
2026-05-05 19:20 34.27114 -118.51426 4108 ft 57 kts 327°
2026-05-05 19:20 34.27472 -118.51608 4190 ft 55 kts 332°
2026-05-05 19:21 34.27812 -118.51808 4237 ft 56 kts 331°
2026-05-05 19:21 34.28183 -118.51981 4284 ft 58 kts 335°
2026-05-05 19:21 34.28598 -118.52098 4305 ft 63 kts 345°
2026-05-05 19:21 34.28982 -118.52258 4384 ft 58 kts 323°
2026-05-05 19:22 34.29259 -118.52586 4402 ft 61 kts 289°
2026-05-05 19:22 34.29301 -118.53090 4456 ft 60 kts 288°
2026-05-05 19:22 34.29530 -118.53490 4482 ft 61 kts 311°
2026-05-05 19:22 34.29845 -118.53822 4576 ft 54 kts 313°
2026-05-05 19:23 34.30165 -118.54168 4564 ft 64 kts 316°
2026-05-05 19:23 34.30461 -118.54558 4640 ft 62 kts 289°
2026-05-05 19:23 34.30395 -118.55098 4646 ft 71 kts 247°
2026-05-05 19:23 34.30109 -118.55632 4636 ft 82 kts 240°
2026-05-05 19:24 34.29751 -118.56203 4643 ft 87 kts 239°
2026-05-05 19:24 34.29386 -118.56790 4681 ft 89 kts 230°
2026-05-05 19:24 34.28897 -118.57282 4781 ft 89 kts 224°
2026-05-05 19:24 34.28381 -118.57706 4817 ft 94 kts 222°
2026-05-05 19:25 34.27861 -118.58162 4870 ft 90 kts 220°
2026-05-05 19:25 34.27315 -118.58566 4827 ft 94 kts 213°
2026-05-05 19:25 34.26739 -118.58928 4852 ft 88 kts 215°
2026-05-05 19:25 34.26252 -118.59306 4952 ft 79 kts 224°
2026-05-05 19:26 34.25872 -118.59782 5001 ft 80 kts 234°
2026-05-05 19:26 34.25489 -118.60315 5002 ft 84 kts 234°
2026-05-05 19:26 34.25097 -118.60813 5063 ft 82 kts 233°
2026-05-05 19:26 34.24687 -118.61301 5069 ft 85 kts 230°
2026-05-05 19:27 34.24290 -118.61840 5043 ft 88 kts 234°
2026-05-05 19:27 34.23925 -118.62418 5058 ft 87 kts 243°
2026-05-05 19:27 34.23632 -118.63081 5019 ft 91 kts 249°
2026-05-05 19:27 34.23392 -118.63806 5014 ft 97 kts 251°
2026-05-05 19:28 34.23203 -118.64572 5148 ft 92 kts 259°
2026-05-05 19:28 34.23006 -118.65335 5120 ft 102 kts 256°
2026-05-05 19:28 34.22754 -118.66125 5119 ft 99 kts 252°
2026-05-05 19:28 34.22582 -118.66941 5060 ft 100 kts 259°
2026-05-05 19:29 34.22428 -118.67774 4960 ft 102 kts 259°
2026-05-05 19:29 34.22278 -118.68602 4893 ft 99 kts 260°
2026-05-05 19:29 34.22183 -118.69405 4847 ft 96 kts 268°
2026-05-05 19:29 34.22166 -118.70193 4808 ft 93 kts 272°
2026-05-05 19:30 34.22215 -118.70940 4836 ft 86 kts 278°
2026-05-05 19:30 34.22284 -118.71660 4835 ft 85 kts 277°
2026-05-05 19:30 34.22352 -118.72365 4836 ft 85 kts 279°
2026-05-05 19:30 34.22430 -118.73065 4849 ft 83 kts 278°
2026-05-05 19:31 34.22500 -118.73753 4870 ft 82 kts 279°
2026-05-05 19:31 34.22596 -118.74430 4892 ft 81 kts 281°
2026-05-05 19:31 34.22699 -118.75109 4878 ft 83 kts 281°
2026-05-05 19:31 34.22619 -118.75791 4863 ft 84 kts 257°
2026-05-05 19:32 34.22470 -118.76492 4849 ft 86 kts 256°
2026-05-05 19:32 34.22339 -118.77184 4871 ft 83 kts 259°
2026-05-05 19:32 34.22298 -118.77856 4905 ft 81 kts 269°
2026-05-05 19:32 34.22293 -118.78568 4855 ft 90 kts 272°
2026-05-05 19:33 34.22356 -118.79327 4875 ft 89 kts 286°
2026-05-05 19:33 34.22560 -118.80027 4924 ft 88 kts 279°
2026-05-05 19:33 34.22459 -118.80739 4967 ft 87 kts 239°
2026-05-05 19:33 34.21978 -118.81125 5051 ft 85 kts 192°
2026-05-05 19:34 34.21388 -118.80974 5073 ft 90 kts 152°
2026-05-05 19:34 34.20953 -118.80441 5112 ft 91 kts 114°
2026-05-05 19:34 34.20941 -118.79702 5143 ft 90 kts 65°
2026-05-05 19:35 34.21385 -118.78249 5130 ft 95 kts 70°
2026-05-05 19:35 34.21597 -118.77498 5088 ft 96 kts 68°
2026-05-05 19:35 34.21831 -118.76740 5001 ft 100 kts 68°
2026-05-05 19:35 34.22166 -118.76074 5056 ft 87 kts 34°
2026-05-05 19:36 34.22746 -118.75939 5023 ft 86 kts 347°
2026-05-05 19:36 34.23269 -118.76239 5013 ft 85 kts 317°
2026-05-05 19:36 34.23550 -118.76845 5016 ft 84 kts 281°
2026-05-05 19:36 34.23486 -118.77545 4957 ft 91 kts 255°
2026-05-05 19:37 34.23361 -118.78320 4857 ft 96 kts 263°
2026-05-05 19:37 34.23320 -118.79107 4785 ft 95 kts 272°
2026-05-05 19:37 34.23388 -118.79953 4525 ft 105 kts 281°
2026-05-05 19:37 34.23574 -118.80793 4302 ft 103 kts 287°
2026-05-05 19:38 34.23799 -118.81604 4110 ft 98 kts 284°
2026-05-05 19:38 34.23809 -118.82447 3861 ft 101 kts 259°
2026-05-05 19:38 34.23637 -118.83264 3652 ft 100 kts 258°
2026-05-05 19:38 34.23538 -118.84099 3437 ft 100 kts 263°
2026-05-05 19:39 34.23499 -118.84990 3060 ft 108 kts 269°
2026-05-05 19:39 34.23514 -118.85893 2776 ft 107 kts 271°
2026-05-05 19:39 34.23436 -118.86755 2574 ft 102 kts 254°
2026-05-05 19:39 34.23174 -118.87491 2522 ft 92 kts 242°
2026-05-05 19:40 34.22995 -118.88201 2456 ft 88 kts 268°
2026-05-05 19:40 34.22960 -118.88947 2268 ft 96 kts 257°
2026-05-05 19:40 34.22870 -118.89782 1984 ft 104 kts 267°
2026-05-05 19:40 34.22883 -118.90571 2000 ft 84 kts 271°
2026-05-05 19:41 34.22907 -118.91224 2013 ft 76 kts 267°
2026-05-05 19:41 34.22942 -118.91905 1860 ft 78 kts 271°
2026-05-05 19:41 34.22969 -118.92469 1877 ft 64 kts 269°
2026-05-05 19:41 34.22980 -118.92983 1893 ft 58 kts 265°
2026-05-05 19:42 34.22871 -118.93472 1872 ft 58 kts 249°
2026-05-05 19:42 34.22687 -118.93906 1863 ft 61 kts 249°
2026-05-05 19:42 34.22532 -118.94369 1957 ft 60 kts 249°
2026-05-05 19:42 34.22423 -118.94830 1980 ft 55 kts 260°
2026-05-05 19:43 34.22448 -118.95324 2021 ft 64 kts 271°
2026-05-05 19:43 34.22400 -118.95923 2058 ft 77 kts 259°
2026-05-05 19:43 34.22278 -118.96552 2025 ft 80 kts 254°
2026-05-05 19:43 34.22070 -118.97189 2012 ft 81 kts 248°
2026-05-05 19:44 34.21928 -118.97804 2074 ft 73 kts 256°
2026-05-05 19:44 34.21898 -118.98442 2005 ft 81 kts 267°
2026-05-05 19:44 34.21886 -118.99123 2030 ft 79 kts 265°
2026-05-05 19:44 34.21840 -118.99813 1957 ft 84 kts 263°
2026-05-05 19:45 34.21726 -119.00514 1816 ft 86 kts 258°
2026-05-05 19:45 34.21737 -119.01007 1720 ft 88 kts 272°
2026-05-05 19:45 34.21840 -119.01754 1548 ft 91 kts 279°
2026-05-05 19:45 34.21950 -119.02508 1373 ft 89 kts 265°
2026-05-05 19:46 34.21840 -119.03206 1216 ft 84 kts 254°
2026-05-05 19:46 34.21655 -119.03870 1008 ft 84 kts 250°
2026-05-05 19:46 34.21545 -119.04554 833 ft 83 kts 263°
2026-05-05 19:46 34.21582 -119.05203 716 ft 74 kts 271°
2026-05-05 19:47 34.21649 -119.05743 573 ft 56 kts 266°
2026-05-05 19:47 34.21558 -119.06146 432 ft 47 kts 266°
2026-05-05 19:47 34.21531 -119.06563 316 ft 53 kts 239°
2026-05-05 19:47 34.21410 -119.07011 272 ft 58 kts 258°
2026-05-05 19:48 34.21394 -119.07520 206 ft 65 kts 260°
2026-05-05 19:48 34.21380 -119.08037 163 ft 60 kts 258°
2026-05-05 19:48 34.21369 -119.08534 118 ft 58 kts 260°
2026-05-05 19:48 34.21379 -119.09000 94 ft 52 kts 262°
2026-05-05 19:49 34.21379 -119.09401 74 ft 38 kts 262°
2026-05-05 19:49 34.21375 -119.09597 73 ft 5 kts 268°
2026-05-05 19:49 34.21376 -119.09708 72 ft 23 kts 270°
2026-05-05 19:49 34.21380 -119.09930 70 ft 23 kts 271°
2026-05-05 19:50 34.21361 -119.10081 65 ft 14 kts 214°
2026-05-05 19:50 34.21276 -119.10090 67 ft 12 kts 175°
2026-05-05 19:50 34.21191 -119.10028 66 ft 16 kts 136°
2026-05-05 19:50 34.21119 -119.09937 66 ft 14 kts 121°
2026-05-05 19:51 34.21105 -119.09828 66 ft 13 kts 92°
2026-05-05 19:51 34.21092 -119.09792 60 ft 0 kts 110°